Tracking 28888 objects as of 22-May-2024
HD Live streaming from Space Station
objects crossing your sky now

FREGAT DEB

Track FREGAT DEB now!
10-day predictions


NORAD ID: 45901
Int'l Code: 2011-037DW
Perigee: 595.3 km
Apogee: 5,011.3 km
Inclination: 51.5 °
Period: 145.8 minutes
Semi major axis: 9174 km
RCS: Unknown
Launch date: July 18, 2011
Source: Commonwealth of Independent States (former USSR) (CIS)
Launch site: TYURATAM MISSILE AND SPACE COMPLEX (TTMTR)

Note: This is SATELLITE DEBRIS
Your satellite tracking list
Your tracking list is empty




NASA's NSSDC Master Catalog

Two Line Element Set (TLE):
1 45901U 11037DW  24140.72132803  .00135282  00000-0  14062+0 0  9991
2 45901  51.4933 306.8655 2406737 172.1854 192.4803  9.87974005 29845
Source of the keplerian elements: AFSPC